Location: Lake Almanor
(40.2485°N, 121.1442°W)
Time: 02:32:20
(UTC-08:00)

STARLINK-1115 - Pass Details

Date: 03 February 2020
Orbit: 349 x 350 km, 53.0° (Epoch: 18 February)

Event Time Altitude Azimuth Distance (km) Brightness Sun altitude
Rises 17:56:01 0° 305° (NW) 2,156 7.3 -6.4°
Reaches altitude 10° 17:58:04 10° 301° (WNW) 1,311 6.2 -6.8°
Maximum altitude 18:00:55 53° 223° (SW) 434 3.5 -7.3°
Drops below altitude 10° 18:03:45 10° 145° (SE) 1,302 5.3 -7.8°
Sets 18:05:46 0° 140° (SE) 2,139 6.4 -8.2°
